This is the latest recevied weather packets stored in our database for station/object N3FAA. If no packets are shown the sender has not sent any weather packets the latest 10 day(s).
| Time | Temp. | Humidity | Pressure | Rain* | Wind** | Luminosity | Snow |
|---|---|---|---|---|---|---|---|
| 1778182899 | 31.11° C | 19% | 1012.9 hPa | 0 mm | - | 809 W/m² | - |
| 1778182596 | 31.11° C | 18% | 1012.6 hPa | 0 mm | - | 874 W/m² | - |
| 1778182293 | 31.67° C | 19% | 1013.2 hPa | 0 mm | - | 892 W/m² | - |
| 1778181989 | 31.67° C | 19% | 1013 hPa | 0 mm | - | 909 W/m² | - |
| 1778181686 | 31.67° C | 19% | 1013.4 hPa | 0 mm | - | 897 W/m² | - |
| 1778181382 | 31.11° C | 20% | 1013.2 hPa | 0 mm | - | 836 W/m² | - |
| 1778181079 | 30.56° C | 21% | 1013.3 hPa | 0 mm | - | 780 W/m² | - |
| 1778180776 | 30.56° C | 20% | 1013.3 hPa | 0 mm | - | 857 W/m² | - |
| 1778180475 | 30° C | 20% | 1013.4 hPa | 0 mm | - | 930 W/m² | - |
| 1778180173 | 30° C | 21% | 1013.5 hPa | 0 mm | - | 914 W/m² | - |
| 1778179869 | 30.56° C | 21% | 1013.6 hPa | 0 mm | - | 912 W/m² | - |
| 1778179568 | 30° C | 21% | 1013.7 hPa | 0 mm | - | 900 W/m² | - |
| 1778179265 | 30° C | 22% | 1013.6 hPa | 0 mm | - | 903 W/m² | - |
| 1778178961 | 30° C | 22% | 1013.7 hPa | 0 mm | - | 946 W/m² | - |
| 1778178658 | 30.56° C | 21% | 1013.9 hPa | 0 mm | - | 976 W/m² | - |
| 1778178354 | 30° C | 22% | 1013.9 hPa | 0 mm | - | 986 W/m² | - |
| 1778178050 | 29.44° C | 23% | 1013.8 hPa | 0 mm | - | 985 W/m² | - |
| 1778177748 | 29.44° C | 22% | 1014 hPa | 0 mm | - | 1001 W/m² | - |
| 1778177444 | 29.44° C | 23% | 1014 hPa | 0 mm | - | 1015 W/m² | - |
| 1778177140 | 28.89° C | 21% | 1014.3 hPa | 0 mm | - | 1009 W/m² | - |
| 1778176837 | 28.33° C | 23% | 1014 hPa | 0 mm | - | 957 W/m² | - |
| 1778176533 | 28.33° C | 24% | 1014.1 hPa | 0 mm | - | 967 W/m² | - |
| 1778176231 | 27.78° C | 24% | 1014.1 hPa | 0 mm | - | 1043 W/m² | - |
| 1778175928 | 27.78° C | 24% | 1014.3 hPa | 0 mm | - | 1007 W/m² | - |
| 1778175626 | 27.22° C | 25% | 1014.3 hPa | 0 mm | - | 940 W/m² | - |
* Rain latest hour (hover to see other rain measurements)
** Current wind speed in m/s (hover to see current wind gust speed)